Other Public Products
Issued by NWS Charleston, SC

Current Version | Previous Version | Graphics & Text | Print | Product List | Glossary On
Versions: 1 2 3 4 5 6 7 8 9 10 11 12 13 14 15 16 17 18 19 20 21 22 23 24 25 26 27 28 29 30 31 32 33 34 35 36 37 38 39 40 41 42 43 44 45 46 47 48 49 50
334 FPUS82 KCHS 190312 OPUCHS TEST...KCHS/KSAV Gateway Observations...TEST National Weather Service Charleston SC 1000 PM EST SAT NOV 18 2017 NOTE: "fair" indicates few or no clouds below 12,000 feet with no significant weather and/or obstructions to visibility. SCZ050-WAZ558-NCZ071-TXZ119-213-PAZ071-DCZ001-FLZ074-172-MI076- NYZ176-178-MAZ016-IL014-TNZ027-NJZ106-GAZ044-MD014-190400- ...Gateway Observations for Charleston International... CITY SKY/WX TMP DP RH WIND PRES REMARKS Chas Airport CLEAR 63 59 87 S12 29.82F Seattle MOCLDY 45 37 73 S7 30.14S Charlotte MOCLDY 65 52 62 S16 29.64F Dallas DFW MOCLDY 51 35 54 N8 30.26R Dallas Love PTCLDY 53 34 48 N8 30.27R Philladelphia CLOUDY 57 47 69 S15 29.47F Wash National CLOUDY 63 49 60 S22G31 29.48R Baltimore CLOUDY 61 48 62 SW13G23 29.45F Miami CLEAR 73 66 78 CALM 29.97S Detroit LGT RAIN 37 34 89 NW14 29.43R WCI 28 Newark CLOUDY 51 46 83 VRB3 29.50F Laguardia LGT RAIN 52 46 80 S6 29.50F J F K LGT RAIN 55 53 93 S18 29.52F Boston Logan CLOUDY 48 46 93 SE9 29.54F Ft. Lauderdale PTCLDY 73 66 78 CALM 29.96S Chicago O`Hare CLOUDY 39 30 70 NW16 29.75R WCI 30 Chicago Midway CLOUDY 40 30 67 NW17G28 29.77R WCI 31 Houston Bush CLEAR 64 44 48 N23G30 30.11R Houston Hobby CLEAR 66 44 45 N24G32 30.08R Nashville MOCLDY 45 38 76 NW17G25 29.89R Atlanta CLOUDY 68 62 81 SW14G26 29.68F $$ GAZ044-118-TXZ119-213-NCZ071-DCZ001-MDZ014-506-PAZ021-071-NJZ106- NYZ176-178-MAZ106-OHZ011-021-055-MIZ076-KYZ091-ILZ014-INZ047- MNZ060-ONZ431-190400- ...Gateway Observations for Savannah International... CITY SKY/WX TMP DP RH WIND PRES REMARKS Savannah Arpt CLEAR 63 57 81 S12 29.85F Atlanta CLOUDY 68 62 81 SW14G26 29.68F Charlotte MOCLDY 65 52 62 S16 29.64F Dallas DFW MOCLDY 51 35 54 N8 30.26R Houston Bush CLEAR 64 44 48 N23G30 30.11R Wash National CLOUDY 63 49 60 S22G31 29.48R Wash Dulles CLOUDY 61 47 59 S22G30 29.45F Baltimore CLOUDY 61 48 62 SW13G23 29.45F Philadelphia CLOUDY 57 47 69 S15 29.47F Newark CLOUDY 51 46 83 VRB3 29.50F Laguardia LGT RAIN 52 46 80 S6 29.50F J F K LGT RAIN 55 53 93 S18 29.52F Boston CLOUDY 48 46 93 SE9 29.54F Pittsburg CLOUDY 56 56 100 S8 29.18F Akron LGT RAIN 47 44 90 NW17G30 29.19R FOG Cleveland LGT RAIN 43 40 89 NW20G37 29.31R FOG Cincinnati LGT RAIN 42 40 92 NW23G37 29.59R Columbus CLOUDY 44 43 97 NW18G25 29.37R Detroit LGT RAIN 37 34 89 NW14 29.43R WCI 28 Chicago O`Hare CLOUDY 39 30 70 NW16 29.75R WCI 30 Minneapolis CLEAR 22 12 65 NW20G25 30.02R WCI 7 Indianapolis DRIZZLE 39 36 89 NW22G35 29.72R WCI 29 Toronto Canada LGT RAIN 43 41 93 N15G22 29.14F FOG $$

USA.gov is the U.S. government's official web portal to all federal, state and local government web resources and services.